Regional Weather Roundup
Issued by NWS Albany, NY

Home | Current Version | Previous Version | Graphics & Text | Print | Product List | Glossary On
Versions: 1 2 3 4 5 6 7 8 9 10 11 12 13 14 15 16 17 18 19 20 21 22 23 24 25 26 27 28
000
ASUS41 KALY 271510
RWRALY

NEW YORK STATE HOURLY WEATHER ROUNDUP
NATIONAL WEATHER SERVICE ALBANY NY
1100 AM EDT WED JUL 27 2016

NOTE: "FAIR" INDICATES FEW OR NO CLOUDS BELOW 12,000 FEET WITH NO
SIGNIFICANT WEATHER AND/OR NO OBSTRUCTIONS TO VISIBILITY.

NYZ032-033-038>043-046>054-057>066-NYZ062>081-082-084-271600-
EAST


CITY           SKY/WX    TMP DP  RH WIND       PRES   REMARKS
ALBANY         MOSUNNY   81  61  50 CALM      29.96S
GLENS FALLS    SUNNY     79  63  57 CALM      29.95F
POUGHKEEPSIE   SUNNY     83  63  50 NE5       29.95F
MONTGOMERY     SUNNY     82  65  56 S6        29.97S
WHITE PLAINS   SUNNY     84  60  44 NW7       29.96S
ISLIP          MOSUNNY   86  63  45 VRB7      29.94S
NEW YORK CITY  MOSUNNY   84  60  44 NE9       29.95S
CENTRAL PARK   SUNNY     84  60  44 W5        29.98S
$$

NYZ005>009-017-018-044>046-055-056-271600-
CENTRAL


CITY           SKY/WX    TMP DP  RH WIND       PRES   REMARKS
FULTON         SUNNY     82  65  56 W5        29.98S
SYRACUSE       MOSUNNY   79  65  62 VRB5      29.98S
ROME           SUNNY     76  66  71 NW7       30.00S
ELMIRA         SUNNY     81  60  48 SW12      30.00S
BINGHAMTON     SUNNY     77  58  51 W9        30.03S
MONTICELLO     SUNNY     79  63  57 NW3       30.03S
$$

NYZ026>034-041>043-087-271600-
NORTH


CITY           SKY/WX    TMP DP  RH WIND       PRES   REMARKS
WATERTOWN      SUNNY     79  63  57 SW10      29.96F
FORT DRUM      NOT AVBL
MASSENA        SUNNY     80  62  54 SW10      29.92F
SARANAC LAKE   SUNNY     76  58  53 SW6       29.99S
PLATTSBURGH    SUNNY     77  67  71 SE12      29.92F
$$

NYZ001>004-010>016-019>021-085-271600-
WEST


CITY           SKY/WX    TMP DP  RH WIND       PRES   REMARKS
NIAGARA FALLS  MOSUNNY   84  67  56 SW15      29.97F
BUFFALO        MOSUNNY   79  67  66 SW12      29.99S
DUNKIRK        PTSUNNY   79  60  52 W13       30.02R
JAMESTOWN      SUNNY     75  59  57 W5        30.07R
WELLSVILLE     MOSUNNY   78  57  48 NW8       30.09S
ROCHESTER      MOSUNNY   83  64  52 NW9       29.99S
PENN YAN       SUNNY     80  59  48 W7        30.01S
$$

             KEY
       WCI = WIND CHILL INDEX
       VSB = VISIBILITY
       HX  = HEAT INDEX
$$




USA.gov is the U.S. government's official web portal to all federal, state and local government web resources and services.